| time (UTC) | temp F | wind direction | speed MPH | gust MPH | rain 1hr in | rain 24hr in | rain mn in | humidity % | barometer mb |
| 20260902053404 | 64 | 325 | 0.0 | 0.0 | 0.00 | 0.00 | 0.00 | 98 | 1021.0 |
| 20260902052904 | 64 | 325 | 0.0 | 0.0 | 0.00 | 0.00 | 0.00 | 98 | 1021.0 |
| 20260902052404 | 64 | 325 | 0.0 | 0.0 | 0.00 | 0.00 | 0.00 | 98 | 1020.9 |
| 20260902051904 | 64 | 325 | 0.0 | 0.0 | 0.00 | 0.00 | 0.00 | 98 | 1020.9 |
| 20260902050905 | 64 | 325 | 0.0 | 0.0 | 0.00 | 0.00 | 0.00 | 98 | 1020.9 |
| 20260902050404 | 64 | 325 | 0.0 | 0.0 | 0.00 | 0.00 | 0.00 | 98 | 1020.8 |
| 20260902045904 | 64 | 325 | 0.0 | 0.0 | 0.00 | 0.00 | 0.00 | 98 | 1020.9 |
| 20260902044904 | 64 | 325 | 0.0 | 0.0 | 0.00 | 0.00 | 0.00 | 98 | 1020.9 |
| 20260902044404 | 64 | 325 | 0.0 | 0.0 | 0.00 | 0.00 | 0.00 | 98 | 1020.9 |
| 20260902043404 | 64 | 325 | 0.0 | 0.0 | 0.00 | 0.00 | 0.00 | 98 | 1021.0 |
| 20260902042904 | 64 | 325 | 0.0 | 0.0 | 0.00 | 0.00 | 0.00 | 98 | 1020.9 |
| 20260902042404 | 64 | 325 | 0.0 | 0.0 | 0.00 | 0.00 | 0.00 | 98 | 1020.9 |
| 20260902041904 | 64 | 325 | 0.0 | 0.0 | 0.00 | 0.00 | 0.00 | 98 | 1021.0 |
| 20260902041404 | 64 | 325 | 0.0 | 0.0 | 0.00 | 0.00 | 0.00 | 98 | 1021.0 |
| 20260902040904 | 64 | 325 | 0.0 | 0.0 | 0.00 | 0.00 | 0.00 | 98 | 1021.0 |
| 20260902040404 | 64 | 325 | 0.0 | 0.0 | 0.00 | 0.00 | 0.00 | 98 | 1021.0 |
| 20260902034904 | 64 | 325 | 0.0 | 0.0 | 0.00 | 0.00 | 0.00 | 98 | 1021.0 |
| 20260902034404 | 64 | 325 | 0.0 | 0.0 | 0.00 | 0.00 | 0.00 | 98 | 1021.0 |
| 20260902033904 | 64 | 325 | 0.0 | 0.0 | 0.00 | 0.00 | 0.00 | 98 | 1021.0 |
| 20260902033404 | 64 | 325 | 0.0 | 0.0 | 0.00 | 0.00 | 0.00 | 98 | 1021.1 |
| 20260902032904 | 64 | 325 | 0.0 | 0.0 | 0.00 | 0.00 | 0.00 | 98 | 1021.1 |
| 20260902032404 | 64 | 323 | 0.0 | 0.0 | 0.00 | 0.00 | 0.00 | 97 | 1021.1 |
| 20260902031903 | 64 | 323 | 0.0 | 0.0 | 0.00 | 0.00 | 0.00 | 97 | 1021.1 |
| 20260902031403 | 64 | 323 | 0.0 | 0.0 | 0.00 | 0.00 | 0.00 | 97 | 1021.1 |
| 20260902030404 | 64 | 322 | 0.0 | 0.0 | 0.00 | 0.00 | 0.00 | 97 | 1021.0 |
| 20260902025905 | 64 | 322 | 0.0 | 0.0 | 0.00 | 0.00 | 0.00 | 97 | 1021.0 |
| 20260902024904 | 64 | 307 | 0.0 | 0.0 | 0.00 | 0.00 | 0.00 | 97 | 1021.0 |
| 20260902024404 | 64 | 300 | 0.0 | 0.0 | 0.00 | 0.00 | 0.00 | 97 | 1020.9 |
| 20260902023904 | 64 | 300 | 0.0 | 0.0 | 0.00 | 0.00 | 0.00 | 97 | 1021.0 |
| 20260902023404 | 65 | 300 | 0.0 | 0.0 | 0.00 | 0.00 | 0.00 | 97 | 1020.9 |
| 20260902022404 | 65 | 300 | 0.0 | 0.0 | 0.00 | 0.00 | 0.00 | 97 | 1020.9 |
| 20260902021904 | 65 | 300 | 0.0 | 0.0 | 0.00 | 0.00 | 0.00 | 96 | 1020.8 |
| 20260902021405 | 65 | 300 | 0.0 | 0.0 | 0.00 | 0.00 | 0.00 | 96 | 1020.8 |
| 20260902020904 | 65 | 300 | 0.0 | 2.0 | 0.00 | 0.00 | 0.00 | 96 | 1020.8 |
| 20260902015904 | 65 | 313 | 1.0 | 2.0 | 0.00 | 0.00 | 0.00 | 96 | 1020.8 |
| 20260902015404 | 65 | 331 | 0.0 | 3.0 | 0.00 | 0.00 | 0.00 | 96 | 1020.8 |
| 20260902014904 | 65 | 29 | 0.0 | 0.0 | 0.00 | 0.00 | 0.00 | 96 | 1020.8 |
| 20260902013904 | 65 | 29 | 0.0 | 0.0 | 0.00 | 0.00 | 0.00 | 96 | 1020.8 |
| 20260902013404 | 65 | 29 | 0.0 | 0.0 | 0.00 | 0.00 | 0.00 | 96 | 1020.9 |
| 20260902012904 | 65 | 29 | 0.0 | 1.0 | 0.00 | 0.00 | 0.00 | 96 | 1021.0 |
| 20260902011904 | 66 | 29 | 0.0 | 0.0 | 0.00 | 0.00 | 0.00 | 96 | 1021.0 |
| 20260902011404 | 66 | 29 | 0.0 | 0.0 | 0.00 | 0.00 | 0.00 | 96 | 1021.0 |
| 20260902010904 | 66 | 30 | 0.0 | 2.0 | 0.00 | 0.00 | 0.00 | 96 | 1021.0 |
| 20260902010404 | 66 | 30 | 0.0 | 0.0 | 0.00 | 0.00 | 0.00 | 95 | 1021.0 |
| 20260902005404 | 66 | 30 | 0.0 | 2.0 | 0.00 | 0.00 | 0.00 | 96 | 1021.1 |
| 20260902004904 | 66 | 30 | 0.0 | 1.0 | 0.00 | 0.00 | 0.00 | 96 | 1021.1 |
| 20260902004404 | 66 | 30 | 0.0 | 2.0 | 0.00 | 0.00 | 0.00 | 96 | 1021.0 |
| 20260902003904 | 66 | 30 | 0.0 | 0.0 | 0.00 | 0.00 | 0.00 | 96 | 1021.0 |
| 20260902003404 | 66 | 30 | 0.0 | 2.0 | 0.00 | 0.00 | 0.00 | 96 | 1021.0 |
| 20260902002903 | 66 | 30 | 0.0 | 0.0 | 0.00 | 0.00 | 0.00 | 96 | 1021.1 |
| 20260902002404 | 66 | 30 | 0.0 | 1.0 | 0.00 | 0.00 | 0.00 | 96 | 1021.1 |
| 20260902001904 | 66 | 30 | 0.0 | 0.0 | 0.00 | 0.00 | 0.00 | 96 | 1021.1 |
| 20260902001404 | 66 | 30 | 0.0 | 0.0 | 0.00 | 0.00 | 0.00 | 96 | 1021.2 |
| 20260902000904 | 66 | 30 | 0.0 | 2.0 | 0.00 | 0.00 | 0.00 | 95 | 1021.1 |
| 20260902000406 | 66 | 30 | 1.0 | 2.0 | 0.00 | 0.00 | 0.00 | 95 | 1021.2 |
| 20260901235904 | 66 | 30 | 0.0 | 1.0 | 0.00 | 0.00 | 0.00 | 95 | 1021.2 |
| 20260901235405 | 66 | 30 | 0.0 | 1.0 | 0.00 | 0.00 | 0.00 | 95 | 1021.2 |
| 20260901234904 | 66 | 29 | 0.0 | 2.0 | 0.00 | 0.00 | 0.00 | 95 | 1021.2 |
| 20260901234404 | 66 | 29 | 2.0 | 3.0 | 0.00 | 0.00 | 0.00 | 95 | 1021.3 |
| 20260901233904 | 66 | 30 | 1.0 | 2.0 | 0.00 | 0.00 | 0.00 | 95 | 1021.3 |
| 20260901232404 | 66 | 29 | 0.0 | 2.0 | 0.00 | 0.00 | 0.00 | 95 | 1021.3 |
| 20260901231905 | 66 | 28 | 0.0 | 2.0 | 0.00 | 0.00 | 0.00 | 95 | 1021.3 |
| 20260901231404 | 66 | 28 | 0.0 | 1.0 | 0.00 | 0.00 | 0.00 | 95 | 1021.3 |
| 20260901230904 | 66 | 28 | 0.0 | 2.0 | 0.00 | 0.00 | 0.00 | 95 | 1021.2 |
| 20260901225904 | 66 | 28 | 1.0 | 3.0 | 0.00 | 0.00 | 0.00 | 95 | 1021.1 |
| 20260901225404 | 66 | 26 | 1.0 | 3.0 | 0.00 | 0.00 | 0.00 | 94 | 1021.1 |
| 20260901224914 | 66 | 26 | 2.0 | 5.0 | 0.00 | 0.00 | 0.00 | 94 | 1021.2 |
| 20260901223906 | 66 | 25 | 3.0 | 9.0 | 0.00 | 0.00 | 0.00 | 94 | 1021.3 |
| 20260901222914 | 66 | 30 | 1.0 | 3.0 | 0.00 | 0.00 | 0.00 | 94 | 1021.3 |
| 20260901222404 | 66 | 36 | 2.0 | 3.0 | 0.00 | 0.00 | 0.00 | 94 | 1021.2 |
| 20260901221404 | 66 | 42 | 1.0 | 6.0 | 0.00 | 0.00 | 0.00 | 94 | 1021.3 |
| 20260901220903 | 66 | 41 | 3.0 | 7.0 | 0.00 | 0.00 | 0.00 | 93 | 1021.3 |
| 20260901220404 | 66 | 47 | 2.0 | 3.0 | 0.00 | 0.00 | 0.00 | 93 | 1021.2 |
| 20260901215904 | 66 | 51 | 1.0 | 3.0 | 0.00 | 0.00 | 0.00 | 93 | 1021.3 |
| 20260901215405 | 67 | 67 | 2.0 | 5.0 | 0.00 | 0.00 | 0.00 | 93 | 1021.3 |
| 20260901214904 | 67 | 46 | 0.0 | 3.0 | 0.00 | 0.00 | 0.00 | 93 | 1021.3 |
| 20260901214404 | 67 | 51 | 1.0 | 6.0 | 0.00 | 0.00 | 0.00 | 93 | 1021.2 |
| 20260901213404 | 67 | 44 | 0.0 | 2.0 | 0.00 | 0.00 | 0.00 | 93 | 1021.2 |
| 20260901212905 | 66 | 61 | 0.0 | 2.0 | 0.00 | 0.00 | 0.00 | 93 | 1021.2 |
| 20260901212404 | 67 | 61 | 1.0 | 3.0 | 0.00 | 0.00 | 0.00 | 93 | 1021.2 |
| 20260901211904 | 66 | 62 | 1.0 | 2.0 | 0.00 | 0.00 | 0.00 | 93 | 1021.2 |
| 20260901211404 | 66 | 61 | 0.0 | 2.0 | 0.00 | 0.00 | 0.00 | 93 | 1021.2 |
| 20260901210904 | 67 | 61 | 0.0 | 3.0 | 0.00 | 0.00 | 0.00 | 93 | 1021.2 |
| 20260901210404 | 67 | 61 | 1.0 | 3.0 | 0.00 | 0.00 | 0.00 | 93 | 1021.1 |
| 20260901205904 | 67 | 58 | 1.0 | 3.0 | 0.00 | 0.00 | 0.00 | 92 | 1021.1 |
| 20260901205405 | 67 | 57 | 3.0 | 3.0 | 0.00 | 0.00 | 0.00 | 92 | 1021.1 |
| 20260901204904 | 67 | 55 | 0.0 | 3.0 | 0.00 | 0.00 | 0.00 | 92 | 1021.2 |
| 20260901204404 | 67 | 72 | 0.0 | 3.0 | 0.00 | 0.00 | 0.00 | 92 | 1021.1 |
| 20260901203904 | 67 | 67 | 1.0 | 5.0 | 0.00 | 0.00 | 0.00 | 92 | 1021.1 |
| 20260901203404 | 67 | 67 | 4.0 | 6.0 | 0.00 | 0.00 | 0.00 | 92 | 1021.0 |
| 20260901202404 | 67 | 42 | 2.0 | 5.0 | 0.00 | 0.00 | 0.00 | 92 | 1021.2 |
| 20260901201904 | 67 | 66 | 2.0 | 5.0 | 0.00 | 0.00 | 0.00 | 92 | 1021.1 |
| 20260901201404 | 67 | 5 | 1.0 | 5.0 | 0.00 | 0.00 | 0.00 | 91 | 1021.1 |
| 20260901200904 | 67 | 29 | 2.0 | 5.0 | 0.00 | 0.00 | 0.00 | 91 | 1021.1 |
| 20260901200405 | 67 | 355 | 3.0 | 6.0 | 0.00 | 0.00 | 0.00 | 91 | 1021.1 |
| 20260901195904 | 67 | 348 | 2.0 | 3.0 | 0.00 | 0.00 | 0.00 | 91 | 1021.1 |
| 20260901195404 | 67 | 17 | 2.0 | 8.0 | 0.00 | 0.00 | 0.00 | 91 | 1021.1 |
| 20260901194904 | 67 | 29 | 2.0 | 7.0 | 0.00 | 0.00 | 0.00 | 91 | 1021.0 |
| 20260901193904 | 67 | 40 | 2.0 | 5.0 | 0.00 | 0.00 | 0.00 | 91 | 1020.8 |
| 20260901193404 | 67 | 29 | 1.0 | 5.0 | 0.00 | 0.00 | 0.00 | 91 | 1020.7 |
| 20260901192904 | 67 | 27 | 1.0 | 3.0 | 0.00 | 0.00 | 0.00 | 91 | 1020.7 |
| 20260901192404 | 67 | 28 | 2.0 | 5.0 | 0.00 | 0.00 | 0.00 | 91 | 1020.6 |
| 20260901191905 | 67 | 23 | 3.0 | 5.0 | 0.00 | 0.00 | 0.00 | 91 | 1020.6 |
| 20260901191404 | 68 | 14 | 3.0 | 9.0 | 0.00 | 0.00 | 0.00 | 90 | 1020.6 |
| 20260901190405 | 68 | 1 | 3.0 | 6.0 | 0.00 | 0.00 | 0.00 | 90 | 1020.5 |
| 20260901185904 | 68 | 26 | 4.0 | 7.0 | 0.00 | 0.00 | 0.00 | 90 | 1020.5 |
| 20260901185405 | 68 | 37 | 2.0 | 7.0 | 0.00 | 0.00 | 0.00 | 90 | 1020.5 |
| 20260901184905 | 68 | 36 | 5.0 | 9.0 | 0.00 | 0.00 | 0.00 | 90 | 1020.6 |
| 20260901184404 | 68 | 15 | 2.0 | 9.0 | 0.00 | 0.00 | 0.00 | 90 | 1020.6 |
| 20260901183904 | 68 | 38 | 5.0 | 12.0 | 0.00 | 0.00 | 0.00 | 90 | 1020.6 |
| 20260901183404 | 68 | 26 | 6.0 | 12.0 | 0.00 | 0.00 | 0.00 | 90 | 1020.5 |
| 20260901182904 | 68 | 25 | 9.0 | 12.0 | 0.00 | 0.00 | 0.00 | 90 | 1020.5 |
| 20260901182404 | 68 | 19 | 6.0 | 13.0 | 0.00 | 0.00 | 0.00 | 90 | 1020.6 |
| 20260901181904 | 68 | 8 | 9.0 | 13.0 | 0.00 | 0.00 | 0.00 | 90 | 1020.7 |
| 20260901181404 | 68 | 39 | 4.0 | 13.0 | 0.00 | 0.00 | 0.00 | 90 | 1020.6 |
| 20260901180904 | 68 | 15 | 6.0 | 13.0 | 0.00 | 0.00 | 0.00 | 90 | 1020.5 |
| 20260901180404 | 68 | 15 | 7.0 | 15.0 | 0.00 | 0.00 | 0.00 | 90 | 1020.4 |
| 20260901175404 | 69 | 9 | 10.0 | 15.0 | 0.00 | 0.00 | 0.00 | 89 | 1020.5 |
| 20260901174904 | 69 | 22 | 8.0 | 15.0 | 0.00 | 0.00 | 0.00 | 89 | 1020.5 |
| 20260901174404 | 69 | 18 | 11.0 | 16.0 | 0.00 | 0.00 | 0.00 | 88 | 1020.5 |
| 20260901173904 | 69 | 15 | 9.0 | 15.0 | 0.00 | 0.00 | 0.00 | 88 | 1020.3 |
| 20260901173404 | 69 | 26 | 5.0 | 16.0 | 0.00 | 0.00 | 0.00 | 88 | 1020.4 |
| 20260901172903 | 69 | 34 | 11.0 | 16.0 | 0.00 | 0.00 | 0.00 | 88 | 1020.3 |
| 20260901172405 | 69 | 26 | 9.0 | 17.0 | 0.00 | 0.00 | 0.00 | 87 | 1020.3 |
| 20260901171904 | 69 | 36 | 11.0 | 20.0 | 0.00 | 0.00 | 0.00 | 87 | 1020.2 |
| 20260901171404 | 69 | 19 | 9.0 | 18.0 | 0.00 | 0.00 | 0.00 | 87 | 1020.2 |
| 20260901170905 | 70 | 38 | 10.0 | 18.0 | 0.00 | 0.00 | 0.00 | 86 | 1020.2 |
| 20260901170404 | 70 | 19 | 12.0 | 18.0 | 0.00 | 0.00 | 0.00 | 86 | 1020.1 |
| 20260901165904 | 70 | 21 | 7.0 | 16.0 | 0.00 | 0.00 | 0.00 | 86 | 1019.9 |
| 20260901164904 | 71 | 17 | 8.0 | 16.0 | 0.00 | 0.00 | 0.00 | 85 | 1019.8 |
| 20260901164404 | 71 | 5 | 8.0 | 16.0 | 0.00 | 0.00 | 0.00 | 85 | 1019.7 |
| 20260901162904 | 71 | 31 | 10.0 | 17.0 | 0.00 | 0.00 | 0.00 | 85 | 1019.5 |
| 20260901162404 | 71 | 16 | 9.0 | 17.0 | 0.00 | 0.00 | 0.00 | 85 | 1019.5 |
| 20260901161904 | 71 | 1 | 11.0 | 20.0 | 0.00 | 0.00 | 0.00 | 85 | 1019.5 |
| 20260901161404 | 71 | 4 | 13.0 | 22.0 | 0.00 | 0.00 | 0.00 | 84 | 1019.4 |
| 20260901160904 | 72 | 6 | 10.0 | 18.0 | 0.00 | 0.00 | 0.00 | 83 | 1019.4 |
| 20260901160404 | 71 | 6 | 12.0 | 21.0 | 0.00 | 0.00 | 0.00 | 83 | 1019.2 |
| 20260901155904 | 72 | 25 | 10.0 | 15.0 | 0.00 | 0.00 | 0.00 | 83 | 1019.1 |
| 20260901155404 | 72 | 17 | 12.0 | 18.0 | 0.00 | 0.00 | 0.00 | 82 | 1019.1 |
| 20260901154904 | 72 | 13 | 6.0 | 18.0 | 0.00 | 0.00 | 0.00 | 83 | 1019.0 |
| 20260901154404 | 72 | 14 | 9.0 | 18.0 | 0.00 | 0.00 | 0.00 | 82 | 1019.0 |
| 20260901153904 | 72 | 349 | 10.0 | 14.0 | 0.00 | 0.00 | 0.00 | 82 | 1018.9 |
| 20260901153404 | 72 | 11 | 9.0 | 16.0 | 0.00 | 0.00 | 0.00 | 81 | 1018.9 |
| 20260901152904 | 72 | 14 | 9.0 | 17.0 | 0.00 | 0.00 | 0.00 | 82 | 1018.8 |
| 20260901152404 | 72 | 18 | 12.0 | 20.0 | 0.00 | 0.00 | 0.00 | 81 | 1018.8 |
| 20260901151904 | 72 | 14 | 10.0 | 15.0 | 0.00 | 0.00 | 0.00 | 81 | 1018.8 |
| 20260901151404 | 73 | 8 | 9.0 | 17.0 | 0.00 | 0.00 | 0.00 | 80 | 1018.7 |
| 20260901150904 | 73 | 39 | 6.0 | 14.0 | 0.00 | 0.00 | 0.00 | 80 | 1018.8 |
| 20260901150404 | 73 | 22 | 12.0 | 18.0 | 0.00 | 0.00 | 0.00 | 78 | 1018.9 |
| 20260901145904 | 74 | 24 | 10.0 | 17.0 | 0.00 | 0.00 | 0.00 | 76 | 1018.8 |
| 20260901145403 | 74 | 7 | 6.0 | 14.0 | 0.00 | 0.00 | 0.00 | 77 | 1018.8 |
| 20260901144904 | 73 | 350 | 6.0 | 14.0 | 0.00 | 0.00 | 0.00 | 76 | 1018.9 |
| 20260901144404 | 74 | 0 | 6.0 | 15.0 | 0.00 | 0.00 | 0.00 | 75 | 1018.9 |
| 20260901143404 | 74 | 326 | 3.0 | 12.0 | 0.00 | 0.00 | 0.00 | 76 | 1018.8 |
| 20260901142904 | 74 | 44 | 10.0 | 15.0 | 0.00 | 0.00 | 0.00 | 75 | 1018.9 |
| 20260901142404 | 74 | 358 | 3.0 | 12.0 | 0.00 | 0.00 | 0.00 | 76 | 1018.9 |
| 20260901141904 | 73 | 308 | 3.0 | 13.0 | 0.00 | 0.00 | 0.00 | 76 | 1018.9 |
| 20260901141404 | 73 | 79 | 4.0 | 14.0 | 0.00 | 0.00 | 0.00 | 76 | 1018.8 |
| 20260901135903 | 73 | 352 | 6.0 | 12.0 | 0.00 | 0.00 | 0.00 | 75 | 1018.8 |
| 20260901135405 | 73 | 34 | 4.0 | 9.0 | 0.00 | 0.00 | 0.00 | 76 | 1018.9 |
| 20260901134904 | 73 | 356 | 2.0 | 13.0 | 0.00 | 0.00 | 0.00 | 75 | 1019.1 |
| 20260901134404 | 73 | 13 | 6.0 | 13.0 | 0.00 | 0.00 | 0.00 | 75 | 1019.2 |
| 20260901133904 | 73 | 169 | 2.0 | 5.0 | 0.00 | 0.00 | 0.00 | 75 | 1019.1 |
| 20260901133404 | 73 | 46 | 2.0 | 7.0 | 0.00 | 0.00 | 0.00 | 75 | 1019.2 |
| 20260901132904 | 73 | 16 | 7.0 | 12.0 | 0.00 | 0.00 | 0.00 | 76 | 1019.3 |
| 20260901132404 | 73 | 27 | 5.0 | 12.0 | 0.00 | 0.00 | 0.00 | 74 | 1019.2 |
| 20260901131904 | 74 | 20 | 1.0 | 6.0 | 0.00 | 0.00 | 0.00 | 72 | 1019.2 |
| 20260901131404 | 73 | 88 | 1.0 | 3.0 | 0.00 | 0.00 | 0.00 | 72 | 1019.3 |
| 20260901130904 | 73 | 109 | 1.0 | 5.0 | 0.00 | 0.00 | 0.00 | 73 | 1019.5 |
| 20260901130404 | 73 | 96 | 3.0 | 8.0 | 0.00 | 0.00 | 0.00 | 72 | 1019.5 |
| 20260901125904 | 73 | 75 | 6.0 | 10.0 | 0.00 | 0.00 | 0.00 | 72 | 1019.8 |
| 20260901125404 | 73 | 341 | 3.0 | 7.0 | 0.00 | 0.00 | 0.00 | 73 | 1019.8 |
| 20260901124404 | 72 | 62 | 1.0 | 5.0 | 0.00 | 0.00 | 0.00 | 73 | 1020.2 |
| 20260901123904 | 72 | 357 | 0.0 | 5.0 | 0.00 | 0.00 | 0.00 | 74 | 1020.2 |
| 20260901123403 | 72 | 38 | 2.0 | 3.0 | 0.00 | 0.00 | 0.00 | 74 | 1020.2 |
| 20260901122904 | 72 | 80 | 2.0 | 8.0 | 0.00 | 0.00 | 0.00 | 75 | 1020.3 |
| 20260901121905 | 72 | 95 | 2.0 | 3.0 | 0.00 | 0.00 | 0.00 | 74 | 1020.4 |
| 20260901121404 | 71 | 90 | 2.0 | 7.0 | 0.00 | 0.00 | 0.00 | 75 | 1020.4 |
| 20260901120904 | 71 | 171 | 1.0 | 5.0 | 0.00 | 0.00 | 0.00 | 77 | 1020.5 |
| 20260901120404 | 70 | 28 | 0.0 | 5.0 | 0.00 | 0.00 | 0.00 | 77 | 1020.6 |
| 20260901115404 | 70 | 22 | 1.0 | 3.0 | 0.00 | 0.00 | 0.00 | 78 | 1020.6 |
| 20260901114904 | 70 | 295 | 1.0 | 3.0 | 0.00 | 0.00 | 0.00 | 78 | 1020.6 |
| 20260901114404 | 70 | 27 | 1.0 | 5.0 | 0.00 | 0.00 | 0.00 | 78 | 1020.7 |
| 20260901112904 | 70 | 185 | 0.0 | 5.0 | 0.00 | 0.00 | 0.00 | 79 | 1020.6 |
| 20260901112403 | 70 | 180 | 3.0 | 7.0 | 0.00 | 0.00 | 0.00 | 80 | 1020.6 |
| 20260901111904 | 69 | 101 | 2.0 | 6.0 | 0.00 | 0.00 | 0.00 | 80 | 1020.7 |
| 20260901111404 | 69 | 103 | 2.0 | 6.0 | 0.00 | 0.00 | 0.00 | 80 | 1020.6 |
| 20260901110904 | 69 | 155 | 3.0 | 6.0 | 0.00 | 0.00 | 0.00 | 81 | 1020.7 |
| 20260901110404 | 69 | 149 | 2.0 | 6.0 | 0.00 | 0.00 | 0.00 | 81 | 1020.7 |
| 20260901105904 | 69 | 161 | 2.0 | 6.0 | 0.00 | 0.00 | 0.00 | 82 | 1020.7 |
| 20260901105404 | 68 | 171 | 2.0 | 6.0 | 0.00 | 0.00 | 0.00 | 83 | 1020.7 |
| 20260901104904 | 68 | 82 | 1.0 | 3.0 | 0.00 | 0.00 | 0.00 | 82 | 1020.8 |
| 20260901104404 | 68 | 164 | 1.0 | 3.0 | 0.00 | 0.00 | 0.00 | 83 | 1020.8 |
| 20260901103904 | 68 | 173 | 1.0 | 3.0 | 0.00 | 0.00 | 0.00 | 83 | 1020.9 |
| 20260901103404 | 68 | 97 | 1.0 | 3.0 | 0.00 | 0.00 | 0.00 | 83 | 1020.9 |
| 20260901102907 | 68 | 79 | 0.0 | 3.0 | 0.00 | 0.00 | 0.00 | 83 | 1020.9 |
| 20260901101904 | 68 | 22 | 2.0 | 6.0 | 0.00 | 0.00 | 0.00 | 83 | 1020.9 |
| 20260901100904 | 68 | 119 | 2.0 | 3.0 | 0.00 | 0.00 | 0.00 | 84 | 1020.8 |
| 20260901100403 | 67 | 40 | 1.0 | 3.0 | 0.00 | 0.00 | 0.00 | 85 | 1020.9 |
| 20260901095904 | 67 | 40 | 1.0 | 3.0 | 0.00 | 0.00 | 0.00 | 85 | 1020.9 |
| 20260901095404 | 67 | 13 | 3.0 | 7.0 | 0.00 | 0.00 | 0.00 | 85 | 1020.9 |
| 20260901094904 | 67 | 5 | 0.0 | 1.0 | 0.00 | 0.00 | 0.00 | 87 | 1020.9 |
| 20260901093904 | 66 | 326 | 0.0 | 3.0 | 0.00 | 0.00 | 0.00 | 87 | 1020.9 |
| 20260901093404 | 66 | 229 | 1.0 | 3.0 | 0.00 | 0.00 | 0.00 | 87 | 1020.8 |
| 20260901092904 | 66 | 276 | 1.0 | 3.0 | 0.00 | 0.00 | 0.00 | 88 | 1020.8 |
| 20260901092404 | 66 | 296 | 1.0 | 3.0 | 0.00 | 0.00 | 0.00 | 90 | 1020.7 |
| 20260901091904 | 65 | 297 | 0.0 | 1.0 | 0.00 | 0.00 | 0.00 | 92 | 1020.7 |
| 20260901091404 | 65 | 298 | 0.0 | 2.0 | 0.00 | 0.00 | 0.00 | 93 | 1020.7 |
| 20260901090904 | 65 | 298 | 1.0 | 3.0 | 0.00 | 0.00 | 0.00 | 94 | 1020.7 |
| 20260901090404 | 64 | 296 | 0.0 | 3.0 | 0.00 | 0.00 | 0.00 | 94 | 1020.7 |
| 20260901085904 | 64 | 292 | 1.0 | 3.0 | 0.00 | 0.00 | 0.00 | 94 | 1020.6 |
| 20260901085405 | 64 | 291 | 3.0 | 5.0 | 0.00 | 0.00 | 0.00 | 94 | 1020.6 |
| 20260901084404 | 64 | 212 | 0.0 | 1.0 | 0.00 | 0.00 | 0.00 | 95 | 1020.6 |
| 20260901083905 | 64 | 211 | 0.0 | 2.0 | 0.00 | 0.00 | 0.00 | 96 | 1020.5 |
| 20260901083404 | 64 | 180 | 0.0 | 2.0 | 0.00 | 0.00 | 0.00 | 96 | 1020.4 |
| 20260901082403 | 63 | 179 | 0.0 | 0.0 | 0.00 | 0.00 | 0.00 | 96 | 1020.4 |
| 20260901081904 | 63 | 179 | 0.0 | 0.0 | 0.00 | 0.00 | 0.00 | 96 | 1020.3 |
| 20260901075404 | 63 | 86 | 1.0 | 3.0 | 0.00 | 0.00 | 0.00 | 96 | 1020.3 |
| 20260901074904 | 63 | 70 | 0.0 | 2.0 | 0.00 | 0.00 | 0.00 | 96 | 1020.3 |
| 20260901074404 | 62 | 69 | 0.0 | 0.0 | 0.00 | 0.00 | 0.00 | 96 | 1020.2 |
| 20260901073907 | 62 | 69 | 0.0 | 0.0 | 0.00 | 0.00 | 0.00 | 97 | 1020.2 |
| 20260901073404 | 62 | 69 | 0.0 | 0.0 | 0.00 | 0.00 | 0.00 | 97 | 1020.2 |
| 20260901072404 | 62 | 69 | 0.0 | 1.0 | 0.00 | 0.00 | 0.00 | 97 | 1020.1 |
| 20260901071904 | 62 | 69 | 1.0 | 3.0 | 0.00 | 0.00 | 0.00 | 97 | 1020.1 |
| 20260901071403 | 62 | 68 | 1.0 | 2.0 | 0.00 | 0.00 | 0.00 | 97 | 1020.1 |
| 20260901070404 | 61 | 65 | 0.0 | 0.0 | 0.00 | 0.00 | 0.00 | 97 | 1020.2 |
| 20260901065904 | 61 | 65 | 0.0 | 0.0 | 0.00 | 0.00 | 0.00 | 97 | 1020.2 |
| 20260901065404 | 61 | 65 | 0.0 | 0.0 | 0.00 | 0.00 | 0.00 | 97 | 1020.1 |
| 20260901064904 | 61 | 65 | 0.0 | 0.0 | 0.00 | 0.00 | 0.00 | 97 | 1020.2 |
| 20260901064404 | 61 | 65 | 0.0 | 0.0 | 0.00 | 0.00 | 0.00 | 97 | 1020.2 |
| 20260901063904 | 61 | 65 | 0.0 | 0.0 | 0.00 | 0.00 | 0.00 | 97 | 1020.1 |
| 20260901063404 | 61 | 65 | 0.0 | 0.0 | 0.00 | 0.00 | 0.00 | 97 | 1020.1 |
| 20260901062904 | 61 | 65 | 0.0 | 1.0 | 0.00 | 0.00 | 0.00 | 97 | 1020.1 |
| 20260901062404 | 61 | 65 | 0.0 | 0.0 | 0.00 | 0.00 | 0.00 | 97 | 1020.1 |
| 20260901061404 | 61 | 66 | 0.0 | 0.0 | 0.00 | 0.00 | 0.00 | 97 | 1019.9 |
| 20260901060904 | 61 | 66 | 0.0 | 0.0 | 0.00 | 0.00 | 0.00 | 96 | 1019.9 |
| 20260901060404 | 61 | 66 | 0.0 | 0.0 | 0.00 | 0.00 | 0.00 | 96 | 1019.9 |
| 20260901055904 | 61 | 66 | 0.0 | 0.0 | 0.00 | 0.00 | 0.00 | 96 | 1019.8 |
| 20260901055403 | 61 | 66 | 1.0 | 2.0 | 0.00 | 0.00 | 0.00 | 96 | 1019.8 |
| 20260901054904 | 61 | 66 | 1.0 | 2.0 | 0.00 | 0.00 | 0.00 | 96 | 1019.8 |
| 20260901054404 | 61 | 62 | 0.0 | 0.0 | 0.00 | 0.00 | 0.00 | 96 | 1019.7 |
| 20260901053904 | 61 | 62 | 0.0 | 0.0 | 0.00 | 0.00 | 0.00 | 96 | 1019.7 |